Regional Weather Roundup
Issued by NWS Upton, NY

Current Version | Previous Version | Text Only | Print | Product List | Glossary On
Versions: 1 2 3 4 5 6 7 8 9 10 11 12 13 14 15 16 17 18 19 20 21 22 23 24 25 26
000
ASUS41 KOKX 290904
RWROKX

REGIONAL WEATHER ROUNDUP
NATIONAL WEATHER SERVICE NEW YORK NY
500 AM EDT FRI APR 29 2016

NOTE: "FAIR" INDICATES FEW OR NO CLOUDS BELOW 12,000 FEET WITH NO
SIGNIFICANT WEATHER AND/OR OBSTRUCTIONS TO VISIBILITY.

NYZ071-072-176-178-NJZ106-104-291000-
NEW YORK CITY METRO AREA


CITY           SKY/WX    TMP DP  RH WIND       PRES   REMARKS
CENTRAL PARK   CLOUDY    50  33  52 VRB5      30.08S
LAGUARDIA APRT CLOUDY    50  34  54 E8        30.06R
KENNEDY INTL   CLOUDY    49  37  63 E8        30.07S
NEWARK/LIBERTY CLOUDY    50  38  63 VRB5      30.05S
BRNX BOT. GARD   N/A     48  32  53 NE2       30.05F
TETERBORO      CLOUDY    50  32  50 E5        30.05R
$$

NYZ177-179-078>081-291000-
LONG ISLAND NEW YORK

CITY           SKY/WX    TMP DP  RH WIND       PRES   REMARKS
FARMINGDALE    CLOUDY    48  36  63 E8        30.07R
ISLIP          CLOUDY    47  36  65 E7        30.07R
SHIRLEY        CLOUDY    47  37  68 VRB3      30.08R
RIVERHEAD        N/A     46  39  76 S2        30.08R
WESTHAMPTON    CLOUDY    44  36  73 E8        30.10R
EAST HAMPTON   CLOUDY    46  36  68 E8        30.08F
MONTAUK POINT    N/A     46  37  71 NE8       30.10F
$$

NYZ052-065-067-291000-
HUDSON VALLEY

CITY           SKY/WX    TMP DP  RH WIND       PRES   REMARKS
WHITE PLAINS   DRIZZLE   46  40  79 E5        30.06R
NEWBURGH       NOT AVBL
MONTGOMERY     CLOUDY    47  42  83 N6        30.05R
POUGHKEEPSIE   CLOUDY    48  37  65 N6        30.06R
ALBANY         CLOUDY    38  19  46 NE7       30.10S WCI  33
$$

NJZ001-105-106-008-010-013-015-019>022-104-291000-
NEW JERSEY

CITY           SKY/WX    TMP DP  RH WIND       PRES   REMARKS
NEWARK/LIBERTY CLOUDY    50  38  63 VRB5      30.05S
TETERBORO      CLOUDY    50  32  50 E5        30.05R
CALDWELL       CLOUDY    48  41  76 CALM      30.06S
MORRISTOWN     CLOUDY    46  39  76 CALM      30.05S
SOMERVILLE     CLOUDY    46  41  82 N3        30.03S
SUSSEX         CLOUDY    47  43  86 CALM      30.05R
ANDOVER          N/A     46  42  86 NE3       30.04R
TRENTON        CLOUDY    45  42  89 CALM      30.04S
MILLVILLE      CLOUDY    46  44  93 NE9       30.01F FOG
ATLANTIC CITY  CLOUDY    47  46  97 NE8       30.02S FOG
WRIGHTSTOWN    CLOUDY    44  43  94 NE7       30.01F
TOMS RIVER     CLOUDY    45  39  81 NE7       30.04F
BELMAR         CLOUDY    45  43  93 NE5       30.05F
$$

PAZ047>061-062-071-291000-
EASTERN PENNSYLVANIA

CITY           SKY/WX    TMP DP  RH WIND       PRES   REMARKS
PHILADELPHIA   CLOUDY    47  41  80 NE10      30.05S
ALLENTOWN      CLOUDY    46  41  82 CALM      30.04R
SCRANTON       CLOUDY    45  43  93 CALM      30.01S
$$

CTZ002-004>006-009-010-012-RIZ004-006-007-MAZ004-011-015-291000-
SOUTHERN NEW ENGLAND
 IN CT

CITY           SKY/WX    TMP DP  RH WIND       PRES   REMARKS
BRADLEY INTL   CLOUDY    44  36  73 SE5       30.10R
HARTFORD       CLOUDY    46  38  73 CALM      30.10S
DANBURY        CLOUDY    45  38  76 E6        30.08S
WTRBRY/OXFORD    N/A     43  37  81 SE7       30.09S
BRIDGEPORT     CLOUDY    48  36  63 E15       30.09R
MERIDEN        CLOUDY    45  39  79 CALM      30.10S
NEW HAVEN      CLOUDY    45  38  76 NE8       30.09S
CHESTER        FAIR      43  39  87 NE5       30.09F
GROTON         LGT RAIN  43  43 100 E9        30.11R
WILLIMANTIC    CLOUDY    45  38  76 CALM      30.11S

 IN RI

CITY           SKY/WX    TMP DP  RH WIND       PRES   REMARKS
PROVIDENCE     CLOUDY    45  33  63 E3        30.13R
BLOCK ISLAND   LGT RAIN  44  36  73 E9        30.11S
WESTERLY       LGT RAIN  42  36  79 NE5       30.12R

 IN MA

CITY           SKY/WX    TMP DP  RH WIND       PRES   REMARKS
BOSTON         CLOUDY    44  36  73 SE5       30.14R
WORCESTER      PTCLDY    40  33  76 NE6       30.10R
WESTFIELD      CLOUDY    45  37  73 N5        30.10R
PROVINCETOWN   NOT AVBL
NANTUCKET      CLOUDY    44  34  67 E6        30.13R
$$

ANZ330-335-338-340-345-350-353-355-291000-
COASTAL MARINE OBSERVATIONS


STATION/POSITION TIME  SKY/WX   TEMP    WIND        PRES    VSBY  WAVE
                                AIR SEA DIR/SP/G                  HT/PER
                 (UTC)          (F)     (DEG/KT/KT) (MB)    (MI)  (FT/S)
NY HARB ENTRANCE 0750            49 51   80/ 12/ 14 1016.8          2/ 6
20S FIRE ISLAND  0750            47 49   70/ 12/ 14 1017.2          3/ 7
GREAT SOUTH BAY  0800            49 57   80/ 12/ 14   N/A
23 SSW MONTAUK P 0850            46 47   80/ 14/ 17 1018.0          3/ 7
15 E BARNEGAT LI 0822               51                N/A           4/ 6
HUDSON CANYON    0750            50 49              1016.0          4/ 6
KINGS POINT      0800            48 53              1017.5
EXECUTION ROCKS  NOT AVBL
CENTRAL LI SOUND 0800            47      80/ 14/ 16   N/A           1
EASTERN LI SOUND 0800            45 47   70/ 12/ 14   N/A
ROBBINS REEF     0800            49      90/  7/  8 1017.0
$$


>>>>>>>>>>>>>>>>>>>>>>>>>>>> KEY <<<<<<<<<<<<<<<<<<<<<<<<<<<
>                                                          <
>     SKY/WX - SKY CONDITION/PRESENT WEATHER               <
>     TMP    - TEMPERATURE IN FAHRENHEIT                   <
>     DP     - DEWPOINT IN FAHRENHEIT                      <
>     RH     - RELATIVE HUMIDITY IN PERCENT                <
>     WIND   - DIRECTION AND SPEED IN MPH                  <
>     PRES   - MEAN SEA LEVEL PRESSURE IN INCHES OF HG     <
>     WCI    - WIND CHILL INDEX                            <
>     VSB    - VISIBILITY IN MILES                         <
>     HX     - HEAT INDEX                                  <
>     TC     - TEMPERATURE IN CELSIUS                      <
>     VRB    - VARIABLE WIND DIRECTION                     <
>                                                          <
>>>>>>>>>>>>>>>>>>>>>>>>>>>> KEY <<<<<<<<<<<<<<<<<<<<<<<<<<<






USA.gov is the U.S. government's official web portal to all federal, state and local government web resources and services.